Wind_Speed
5 6 6 7 8 9 9 10 8 8 12 6 7 9 17 23 24 25 26 29 29 30 31 32 31 31 32 32 34 34 34 34 33 33 31 29 28 28
6 6 7 8 9 9 10 11 11 10 10 10 14 16 20 22 22 25 25 27 28 29 29 30 30 31 31 32 32 33 34 36 36 35 35 34 31 30
5 6 7 7 8 9 11 12 12 13 13 16 16 19 21 23 25 25 24 23 23 26 28 29 30 30 30 30 31 31 32 33 35 37 37 36 36 33
4 5 7 9 10 12 13 14 14 14 15 15 16 18 22 25 25 28 25 21 19 20 28 28 29 29 29 29 29 30 31 32 33 34 36 37 36 36
6 8 9 11 12 14 14 15 14 15 15 14 17 16 18 21 23 24 20 21 19 22 22 24 24 28 28 29 28 27 28 29 31 32 33 35 36 36
8 10 12 13 14 15 15 14 14 15 14 14 16 17 16 17 18 20 21 20 22 23 23 22 23 23 28 29 31 31 29 29 29 29 31 32 34 37
10 12 13 15 16 16 16 15 15 13 14 15 16 16 16 18 18 19 21 22 22 22 25 23 28 29 30 30 28 26 32 31 30 30 31 31 32 34
12 13 14 15 16 16 17 17 18 18 15 15 16 18 19 19 19 20 23 24 26 21 24 29 29 34 34 30 29 34 33 31 30 29 28 31 32 32
13 14 15 16 16 16 16 15 15 16 17 17 17 18 20 19 21 22 22 25 27 27 26 30 27 29 28 29 30 32 33 30 28 26 28 31 32 33
13 14 14 14 15 14 13 14 14 13 13 13 14 17 18 19 21 23 24 26 28 27 22 29 30 29 27 30 32 30 29 29 27 28 30 29 31 32
12 13 13 13 13 13 13 13 14 14 15 17 18 19 19 21 23 26 22 23 29 26 22 24 27 31 31 34 26 28 29 33 30 30 31 30 30 30
11 11 12 12 13 12 11 13 15 15 16 17 17 18 20 20 21 21 20 20 23 27 19 25 30 27 29 31 28 32 30 31 31 30 32 32 31 30
11 11 11 12 12 11 12 14 15 17 18 18 18 18 19 19 20 20 18 18 22 27 27 24 29 32 28 35 34 33 33 35 33 35 31 33 29 29
9 10 12 13 13 15 14 16 19 18 17 19 21 21 21 22 20 20 22 23 24 27 29 25 27 26 30 35 38 37 35 32 29 36 36 32 32 32
10 12 14 15 16 15 17 19 20 19 19 20 19 20 21 22 23 24 24 25 27 27 26 25 25 26 26 30 35 36 34 37 33 29 33 32 36 34
12 12 16 17 16 18 18 17 17 17 17 18 19 21 23 23 23 24 26 27 27 27 24 24 26 26 27 29 30 34 32 31 30 30 28 33 36 25
12 14 14 14 14 15 14 15 16 17 18 19 20 22 24 24 24 23 24 23 24 28 29 27 22 21 24 26 26 28 26 27 28 30 30 32 31 18
12 13 13 14 15 14 14 16 16 17 17 18 19 20 21 21 23 22 21 21 22 24 25 26 26 25 27 24 18 24 28 23 27 28 25 25 22 13
11 12 14 13 13 14 15 16 18 19 19 17 18 20 19 20 21 21 21 22 24 25 24 23 23 23 25 28 26 21 23 25 24 22 18 19 17 15
12 13 12 11 13 14 16 17 19 19 17 17 18 19 19 19 20 21 22 24 24 25 27 26 23 21 22 26 29 28 17 23 21 16 17 17 14 13
11 11 12 14 15 17 17 17 17 19 18 19 20 20 20 19 21 22 24 24 24 25 27 28 24 20 21 21 23 23 21 20 15 13 15 15 12 11
10 12 13 15 16 16 16 17 18 19 20 21 21 21 20 20 22 23 24 26 26 27 30 28 25 21 19 17 21 21 18 17 15 10 9 10 10 7
11 13 15 16 16 17 17 19 22 23 24 22 21 20 19 21 23 24 24 24 27 29 26 25 22 19 18 17 17 17 16 15 14 13 12 11 11 12
Wind_Direction
275 286 292 299 305 306 308 309 302 306 309 302 308 300 289 300 304 307 307 305 307 305 305 304 303 302 300 297 294 292 291 292 293 294 295 293 294 296
275 284 290 298 303 306 306 304 299 283 274 293 301 300 307 313 312 313 309 308 308 308 307 306 306 304 302 300 298 295 292 287 286 287 288 289 287 288
275 283 289 298 303 304 303 300 297 290 280 288 293 299 306 309 312 314 318 315 313 307 308 309 307 306 307 306 304 300 295 290 286 283 283 284 286 283
262 277 290 299 301 301 301 299 298 297 293 294 298 304 304 308 310 312 314 313 313 312 309 312 311 311 311 308 307 305 301 297 292 288 286 284 282 282
279 288 294 299 301 301 303 303 303 303 301 298 302 303 306 311 311 313 317 316 314 313 315 314 312 310 309 311 309 307 306 304 301 297 289 285 284 283
292 296 299 302 303 306 307 306 305 303 301 300 300 305 309 314 316 318 316 318 317 316 316 316 315 311 312 313 311 309 304 303 302 299 296 289 282 280
295 300 302 303 303 303 302 299 301 300 300 300 300 305 310 315 315 316 314 314 314 315 315 316 314 311 315 314 310 305 306 305 299 296 295 295 289 281
296 299 299 301 300 300 298 297 296 296 295 297 297 298 302 306 310 310 309 312 311 315 310 307 309 309 313 313 305 307 307 306 303 299 294 291 292 289
299 300 301 302 303 304 304 302 300 295 290 289 291 292 297 302 305 306 306 306 305 307 309 304 306 303 303 304 303 306 308 307 303 300 297 293 292 290
300 300 301 302 303 307 308 305 305 302 299 292 289 292 293 296 297 300 301 301 300 303 306 302 306 306 308 299 302 307 309 307 302 301 305 303 300 291
301 303 303 304 303 305 307 307 305 303 301 302 300 296 296 299 300 303 302 301 300 303 308 301 305 305 308 308 306 301 300 305 306 302 305 308 307 296
300 302 303 306 306 304 304 300 301 301 305 304 297 298 304 306 308 306 305 300 298 303 308 303 307 312 310 308 308 315 315 310 308 305 307 308 310 300
301 304 303 306 302 301 295 295 290 296 300 297 302 305 308 309 309 307 304 298 298 297 306 305 305 311 305 305 308 311 311 311 310 308 313 313 306 303
295 295 300 306 304 294 296 289 298 299 295 298 300 303 304 306 305 304 304 303 299 298 305 304 301 307 309 308 305 310 313 313 309 308 315 312 311 306
286 290 298 297 300 304 300 305 304 300 297 296 297 297 298 301 305 305 305 306 304 303 301 299 300 301 303 304 307 310 309 311 313 312 311 317 312 312
301 305 300 301 301 305 307 307 303 302 298 294 293 291 299 303 303 304 305 306 306 307 307 306 307 305 300 299 304 304 310 313 315 317 318 316 323 310
306 299 299 302 304 307 304 302 303 302 300 299 298 298 298 300 303 308 308 310 310 310 308 313 314 305 305 305 300 310 311 312 318 318 321 325 332 314
294 295 298 302 306 303 300 304 308 310 308 305 303 300 302 305 310 314 312 309 308 312 314 315 316 316 315 315 304 302 312 310 315 315 326 328 343 8
294 294 302 304 301 302 306 306 305 305 307 304 300 307 309 306 305 313 319 316 314 318 319 320 316 312 311 309 311 309 313 320 320 316 323 327 337 347
301 301 301 300 301 304 308 310 310 312 312 309 310 308 308 312 314 314 316 317 317 320 319 316 314 311 306 306 309 313 323 327 317 308 314 324 335 347
306 308 313 313 311 308 309 312 315 316 314 310 312 313 314 312 312 316 316 317 314 315 317 319 318 310 300 300 306 313 314 325 315 303 302 317 336 359
311 314 316 316 315 315 315 315 316 319 319 318 319 316 314 314 316 318 318 317 316 316 316 316 317 314 307 297 303 311 318 317 332 320 319 313 319 324
312 313 314 314 314 314 314 313 313 313 314 313 313 315 317 316 315 315 316 315 316 316 314 313 309 307 301 299 300 304 309 315 316 313 310 307 309 312
Height
1542 1543 1544 1543 1542 1542 1542 1542 1543 1543 1541 1540 1538 1536 1532 1530 1527 1525 1522 1519 1517 1514 1512 1509 1506 1503 1501 1498 1495 1493 1490 1486 1484 1480 1478 1477 1474 1471
1540 1541 1541 1541 1539 1539 1539 1539 1539 1539 1539 1537 1535 1531 1527 1524 1521 1518 1517 1514 1512 1508 1506 1503 1499 1496 1493 1491 1488 1485 1482 1479 1476 1474 1471 1469 1468 1466
1538 1539 1539 1538 1537 1537 1536 1536 1535 1534 1533 1532 1530 1527 1523 1520 1517 1513 1510 1508 1505 1502 1499 1497 1493 1490 1487 1484 1480 1478 1475 1471 1468 1466 1463 1461 1460 1459
1535 1536 1536 1535 1534 1534 1533 1532 1531 1529 1528 1526 1524 1522 1519 1516 1512 1509 1506 1504 1501 1497 1493 1490 1487 1484 1481 1478 1475 1471 1467 1464 1461 1458 1455 1453 1451 1450
1533 1533 1533 1532 1531 1530 1529 1528 1527 1526 1524 1522 1520 1517 1514 1512 1507 1504 1502 1499 1496 1493 1489 1485 1482 1478 1475 1472 1469 1465 1462 1458 1454 1450 1448 1445 1443 1441
1529 1529 1528 1528 1527 1526 1525 1524 1522 1521 1520 1518 1515 1513 1510 1507 1504 1501 1497 1495 1492 1488 1485 1482 1478 1474 1470 1466 1462 1459 1456 1452 1448 1444 1440 1437 1435 1433
1525 1525 1524 1523 1522 1521 1521 1520 1519 1517 1516 1514 1511 1509 1507 1504 1501 1498 1495 1491 1488 1485 1481 1477 1473 1469 1465 1460 1457 1453 1449 1445 1441 1438 1434 1430 1427 1425
1522 1521 1520 1519 1518 1517 1516 1515 1514 1512 1511 1509 1507 1505 1503 1501 1498 1495 1491 1487 1482 1483 1477 1472 1469 1462 1458 1454 1451 1445 1441 1437 1434 1430 1427 1423 1420 1417
1517 1516 1516 1514 1513 1512 1511 1510 1508 1507 1505 1505 1503 1502 1499 1497 1494 1490 1487 1483 1478 1476 1473 1465 1464 1458 1455 1450 1445 1440 1435 1431 1427 1424 1420 1417 1413 1409
1513 1511 1511 1510 1509 1508 1506 1506 1504 1503 1502 1500 1499 1497 1495 1492 1489 1486 1482 1478 1473 1471 1470 1462 1457 1453 1449 1444 1439 1435 1430 1425 1422 1418 1414 1410 1406 1402
1508 1507 1507 1506 1505 1504 1503 1503 1502 1500 1499 1495 1493 1490 1488 1486 1483 1479 1477 1474 1467 1465 1464 1458 1452 1447 1442 1435 1433 1429 1424 1419 1415 1412 1407 1403 1398 1393
1505 1504 1503 1502 1501 1501 1501 1499 1498 1496 1493 1491 1489 1486 1483 1480 1478 1475 1471 1468 1464 1457 1458 1453 1447 1444 1434 1429 1426 1421 1416 1413 1409 1404 1400 1395 1391 1386
1501 1501 1500 1500 1499 1498 1497 1495 1493 1490 1488 1486 1482 1480 1478 1475 1472 1470 1467 1464 1459 1454 1451 1448 1442 1437 1434 1423 1419 1416 1413 1406 1402 1397 1392 1388 1383 1380
1499 1499 1498 1496 1495 1493 1491 1489 1487 1485 1483 1480 1478 1475 1472 1470 1467 1464 1461 1458 1454 1450 1446 1443 1437 1434 1428 1420 1413 1410 1406 1402 1397 1391 1386 1380 1375 1369
1496 1494 1493 1491 1490 1488 1486 1484 1481 1479 1476 1474 1472 1470 1467 1464 1461 1458 1455 1451 1447 1444 1440 1437 1432 1428 1424 1418 1410 1405 1400 1395 1391 1386 1380 1374 1368 1361
1492 1491 1489 1487 1485 1483 1480 1478 1476 1474 1471 1470 1467 1464 1461 1458 1456 1453 1448 1444 1439 1435 1433 1430 1426 1422 1416 1413 1408 1401 1397 1392 1386 1381 1376 1369 1361 1355
1488 1487 1484 1484 1481 1479 1476 1474 1472 1469 1466 1464 1461 1458 1455 1452 1449 1446 1442 1438 1434 1430 1425 1422 1419 1415 1411 1407 1402 1398 1392 1388 1384 1378 1373 1365 1357 1351
1484 1483 1481 1479 1476 1474 1472 1469 1466 1464 1462 1459 1457 1454 1451 1447 1443 1440 1437 1434 1429 1425 1420 1416 1412 1408 1404 1400 1399 1394 1389 1385 1380 1375 1371 1366 1358 1352
1480 1478 1476 1474 1472 1470 1468 1466 1463 1461 1458 1455 1453 1449 1446 1443 1439 1435 1432 1429 1424 1421 1416 1413 1409 1405 1400 1394 1393 1391 1386 1381 1376 1372 1370 1366 1361 1356
1475 1473 1471 1470 1468 1466 1464 1461 1459 1456 1453 1451 1448 1445 1441 1438 1434 1431 1428 1424 1420 1416 1412 1409 1406 1402 1398 1393 1386 1382 1383 1378 1374 1371 1368 1365 1363 1359
1471 1469 1467 1466 1464 1462 1460 1458 1455 1452 1449 1446 1443 1439 1436 1434 1430 1427 1424 1420 1416 1412 1407 1403 1401 1398 1393 1390 1385 1380 1378 1376 1371 1369 1367 1364 1362 1360
1467 1466 1465 1463 1461 1458 1456 1454 1451 1448 1445 1442 1438 1435 1432 1429 1426 1422 1419 1415 1411 1407 1403 1398 1395 1392 1389 1386 1382 1378 1375 1373 1370 1367 1366 1365 1364 1362
1465 1463 1461 1459 1457 1455 1452 1449 1447 1443 1440 1437 1434 1431 1428 1425 1422 1418 1414 1410 1406 1402 1397 1393 1390 1387 1384 1382 1379 1377 1374 1371 1368 1366 1365 1364 1363 1361